Regional Weather Roundup
Issued by NWS

Home | Current Version | Previous Version | Graphics & Text | Print | Product List | Glossary On
Versions: 1 2 3 4 5 6 7 8 9 10 11 12 13 14 15 16 17 18 19 20 21 22 23 24 25 26 27 28 29 30 31 32 33 34 35 36 37 38 39 40 41 42 43 44 45 46 47 48 49 50
000
ASUS44 KMEG 240310
RWRTN
TENNESSEE HOURLY STATE WEATHER ROUNDUP
NATIONAL WEATHER SERVICE MEMPHIS TN
1000 PM CDT FRI JUN 23 2017

TNZ002-004-019-021-049-052-054-088>092-240400-
WEST TENNESSEE

CITY           SKY/WX    TMP DP  RH WIND       PRES   REMARKS
MEMPHIS INTL   LGT RAIN  73  72  96 W12       29.93R
NWS MEMPHIS      N/A     72 N/A N/A MISG        N/A
JACKSON        CLOUDY    73  71  93 CALM      29.92R
SOMERVILLE     MOCLDY    70  70 100 CALM      29.91R
COVINGTON      PTCLDY    73  70  88 NW7       29.91R
UNION CITY     MOCLDY    77  72  83 N8        29.89R
BOLIVAR        MOCLDY    72  70  94 NW5G16    29.91R
PARIS          MOCLDY    73  72  94 N3        29.89R
HUNTINGDON     MOCLDY    77  73  88 CALM      29.88F
LEXINGTON      MOCLDY    77  75  94 NW3       29.88S
SELMER         MOCLDY    75  73  94 CALM      29.90R
SAVANNAH       MOCLDY    77  75  94 S7        29.89R
$$

TNZ008-025-027-028-033-062-065-066-240400-
NORTH MIDDLE TENNESSEE

CITY           SKY/WX    TMP DP  RH WIND       PRES   REMARKS
NASHVILLE      MOCLDY    78  74  87 S6        29.89R
PORTLAND       MOCLDY    77  73  88 SW5       29.87R
CLARKSVILLE    MOCLDY    74  69  85 W6        29.89R
SMYRNA         PTCLDY    77  74  90 S5        29.90R
COOKEVILLE     CLOUDY    73  73 100 S6        29.90S
GALLATIN       CLOUDY    77  75  94 CALM      29.90R
CROSSVILLE     CLOUDY    71  70  96 W7        29.96R
$$

TNZ061-075-076-078-094-096-097-240400-
SOUTH MIDDLE TENNESSEE

CITY           SKY/WX    TMP DP  RH WIND       PRES   REMARKS
FAYETTEVILLE   CLOUDY    73  73 100 SW7       29.93S
TULLAHOMA      CLOUDY    73  72  94 SW8       29.94R
WINCHESTER     CLOUDY    73  73 100 SW5         N/A
MCMINNVILLE    MOCLDY    73  73 100 SW6       29.93R
COLUMBIA       PTCLDY    75  75 100 SW5       29.88R FOG
SHELBYVILLE    MOCLDY    73  73 100 S9        29.91R
$$

TNZ017-018-042-046-047-240400-
NORTHEAST TENNESSEE

CITY           SKY/WX    TMP DP  RH WIND       PRES   REMARKS
TRI CITIES     HVY RAIN  72  70  93 SW21      29.88R VSB 1
ELIZABETHTON   FOG       72  70  94 W14G22    29.88R VSB 3/4
$$

TNZ012-013-036-069-073-074-240400-
CENTRAL EAST TENNESSEE

CITY           SKY/WX    TMP DP  RH WIND       PRES   REMARKS
KNOXVILLE      CLOUDY    73  71  93 SW15      29.91R
OAK RIDGE      CLOUDY    74  72  93 CALM      29.92R
DOWNTOWN KNOXV   N/A     75  73  94 W6        29.90R
GATLINBURG     CLOUDY    73  70  88 SW8       29.91R
MORRISTOWN     MOCLDY    73  72  94 W7G14     29.92R
JACKSBORO      CLOUDY    75  70  83 CALM      29.95R
$$

TNZ083-085-099-240400-
SOUTHEAST TENNESSEE

CITY           SKY/WX    TMP DP  RH WIND       PRES   REMARKS
CHATTANOOGA    CLOUDY    75  72  90 S7        29.92S
$$

SKY/WX REPORTED AS FAIR MEANS FEW OR NO CLOUDS BELOW
12 THOUSAND FEET.





USA.gov is the U.S. government's official web portal to all federal, state and local government web resources and services.